date,time,SUV Intensity [MED/Hr],UV Index,Daily total [MED],Since Last [MED]
22/05/2023,00:02:03,-0.000,0.0,0.0,0.0
22/05/2023,00:03:03,0.000,0.0,0.0,0.0
22/05/2023,00:04:03,-0.001,0.0,0.0,0.0
22/05/2023,00:05:03,-0.001,0.0,0.0,0.0
22/05/2023,00:06:03,0.000,0.0,0.0,0.0
22/05/2023,00:07:03,0.000,0.0,0.0,0.0
22/05/2023,00:08:03,0.000,0.0,0.0,0.0
22/05/2023,00:09:03,0.002,0.0,0.0,0.0
22/05/2023,00:10:03,-0.001,0.0,0.0,0.0
22/05/2023,00:11:04,-0.001,0.0,0.0,0.0
22/05/2023,00:12:03,0.000,0.0,0.0,0.0
22/05/2023,00:13:03,-0.000,0.0,0.0,0.0
22/05/2023,00:14:03,0.000,0.0,0.0,0.0
22/05/2023,00:15:03,0.000,0.0,0.0,0.0
22/05/2023,00:16:03,-0.000,0.0,0.0,0.0
22/05/2023,00:17:03,-0.000,0.0,0.0,0.0
22/05/2023,00:18:03,-0.001,0.0,0.0,0.0
22/05/2023,00:19:03,-0.000,0.0,0.0,0.0
22/05/2023,00:20:03,0.000,0.0,0.0,0.0
22/05/2023,00:21:03,-0.000,0.0,0.0,0.0
22/05/2023,00:22:03,-0.000,0.0,0.0,0.0
22/05/2023,00:23:03,0.000,0.0,0.0,0.0
22/05/2023,00:24:03,-0.000,0.0,0.0,0.0
22/05/2023,00:25:05,-0.001,0.0,0.0,0.0
22/05/2023,00:26:03,-0.000,0.0,0.0,0.0
22/05/2023,00:27:03,-0.000,0.0,0.0,0.0
22/05/2023,00:28:03,-0.000,0.0,0.0,0.0
22/05/2023,00:29:03,0.000,0.0,0.0,0.0
22/05/2023,00:30:04,0.000,0.0,0.0,0.0
22/05/2023,00:31:03,-0.000,0.0,0.0,0.0
22/05/2023,00:32:03,-0.000,0.0,0.0,0.0
22/05/2023,00:33:03,-0.001,0.0,0.0,0.0
22/05/2023,00:34:03,-0.000,0.0,0.0,0.0
22/05/2023,00:35:03,-0.000,0.0,0.0,0.0
22/05/2023,00:36:03,-0.001,0.0,0.0,0.0
22/05/2023,00:37:03,-0.000,0.0,0.0,0.0
22/05/2023,00:38:03,0.000,0.0,0.0,0.0
22/05/2023,00:39:03,-0.000,0.0,0.0,0.0
22/05/2023,00:40:03,-0.000,0.0,0.0,0.0
22/05/2023,00:41:03,0.000,0.0,0.0,0.0
22/05/2023,00:42:03,0.000,0.0,0.0,0.0
22/05/2023,00:43:04,-0.000,0.0,0.0,0.0
22/05/2023,00:44:03,-0.001,0.0,0.0,0.0
22/05/2023,00:45:03,0.000,0.0,0.0,0.0
22/05/2023,00:46:03,0.000,0.0,0.0,0.0
22/05/2023,00:47:04,0.001,0.0,0.0,0.0
22/05/2023,00:48:03,-0.000,0.0,0.0,0.0
22/05/2023,00:49:04,0.000,0.0,0.0,0.0
22/05/2023,00:50:03,-0.001,0.0,0.0,0.0
22/05/2023,00:51:03,-0.000,0.0,0.0,0.0
22/05/2023,00:52:03,-0.001,0.0,0.0,0.0
22/05/2023,00:53:03,-0.000,0.0,0.0,0.0
22/05/2023,00:54:03,0.000,0.0,0.0,0.0
22/05/2023,00:55:04,-0.001,0.0,0.0,0.0
22/05/2023,00:56:04,0.001,0.0,0.0,0.0
22/05/2023,00:57:03,0.000,0.0,0.0,0.0
22/05/2023,00:58:03,-0.000,0.0,0.0,0.0
22/05/2023,00:59:03,-0.000,0.0,0.0,0.0
22/05/2023,01:00:03,-0.000,0.0,0.0,0.0
22/05/2023,01:01:03,-0.001,0.0,0.0,0.0
22/05/2023,01:02:03,-0.000,0.0,0.0,0.0
22/05/2023,01:03:04,0.000,0.0,0.0,0.0
22/05/2023,01:04:03,0.001,0.0,0.0,0.0
22/05/2023,01:05:03,-0.001,0.0,0.0,0.0
22/05/2023,01:06:03,0.001,0.0,0.0,0.0
22/05/2023,01:07:03,-0.000,0.0,0.0,0.0
22/05/2023,01:08:03,-0.001,0.0,0.0,0.0
22/05/2023,01:09:03,-0.001,0.0,0.0,0.0
22/05/2023,01:10:03,0.000,0.0,0.0,0.0
22/05/2023,01:11:03,-0.001,0.0,0.0,0.0
22/05/2023,01:12:03,0.000,0.0,0.0,0.0
22/05/2023,01:13:03,-0.000,0.0,0.0,0.0
22/05/2023,01:14:03,0.000,0.0,0.0,0.0
22/05/2023,01:15:04,-0.000,0.0,0.0,0.0
22/05/2023,01:16:04,-0.001,0.0,0.0,0.0
22/05/2023,01:17:04,-0.000,0.0,0.0,0.0
22/05/2023,01:18:03,-0.000,0.0,0.0,0.0
22/05/2023,01:19:04,0.000,0.0,0.0,0.0
22/05/2023,01:20:03,-0.001,0.0,0.0,0.0
22/05/2023,01:21:03,-0.000,0.0,0.0,0.0
22/05/2023,01:22:03,-0.001,0.0,0.0,0.0
22/05/2023,01:23:03,-0.000,0.0,0.0,0.0
22/05/2023,01:24:03,-0.000,0.0,0.0,0.0
22/05/2023,01:25:03,0.000,0.0,0.0,0.0
22/05/2023,01:26:03,-0.000,0.0,0.0,0.0
22/05/2023,01:27:03,0.000,0.0,0.0,0.0
22/05/2023,01:28:03,-0.001,0.0,0.0,0.0
22/05/2023,01:29:03,-0.000,0.0,0.0,0.0
22/05/2023,01:30:03,-0.000,0.0,0.0,0.0
22/05/2023,01:31:03,-0.001,0.0,0.0,0.0
22/05/2023,01:32:03,0.000,0.0,0.0,0.0
22/05/2023,01:33:03,-0.000,0.0,0.0,0.0
22/05/2023,01:34:03,-0.001,0.0,0.0,0.0
22/05/2023,01:35:03,-0.000,0.0,0.0,0.0
22/05/2023,01:36:03,-0.000,0.0,0.0,0.0
22/05/2023,01:37:03,0.000,0.0,0.0,0.0
22/05/2023,01:38:04,-0.000,0.0,0.0,0.0
22/05/2023,01:39:04,-0.000,0.0,0.0,0.0
22/05/2023,01:40:03,-0.001,0.0,0.0,0.0
22/05/2023,01:41:03,-0.001,0.0,0.0,0.0
22/05/2023,01:42:03,-0.000,0.0,0.0,0.0
22/05/2023,01:43:04,-0.000,0.0,0.0,0.0
22/05/2023,01:44:03,-0.001,0.0,0.0,0.0
22/05/2023,01:45:04,-0.001,0.0,0.0,0.0
22/05/2023,01:46:03,-0.000,0.0,0.0,0.0
22/05/2023,01:47:04,-0.001,0.0,0.0,0.0
22/05/2023,01:48:03,0.001,0.0,0.0,0.0
22/05/2023,01:49:05,-0.000,0.0,0.0,0.0
22/05/2023,01:50:03,-0.001,0.0,0.0,0.0
22/05/2023,01:51:04,-0.000,0.0,0.0,0.0
22/05/2023,01:52:04,-0.001,0.0,0.0,0.0
22/05/2023,01:53:03,0.000,0.0,0.0,0.0
22/05/2023,01:54:03,-0.000,0.0,0.0,0.0
22/05/2023,01:55:04,-0.001,0.0,0.0,0.0
22/05/2023,01:56:03,-0.000,0.0,0.0,0.0
22/05/2023,01:57:03,-0.000,0.0,0.0,0.0
22/05/2023,01:58:04,-0.000,0.0,0.0,0.0
22/05/2023,01:59:04,-0.000,0.0,0.0,0.0
22/05/2023,02:00:03,-0.001,0.0,0.0,0.0
22/05/2023,02:01:03,-0.000,0.0,0.0,0.0
22/05/2023,02:02:03,-0.000,0.0,0.0,0.0
22/05/2023,02:03:03,-0.000,0.0,0.0,0.0
22/05/2023,02:04:03,-0.000,0.0,0.0,0.0
22/05/2023,02:05:03,-0.000,0.0,0.0,0.0
22/05/2023,02:06:03,-0.001,0.0,0.0,0.0
22/05/2023,02:07:04,-0.001,0.0,0.0,0.0
22/05/2023,02:08:04,-0.001,0.0,0.0,0.0
22/05/2023,02:09:03,-0.000,0.0,0.0,0.0
22/05/2023,02:10:03,-0.000,0.0,0.0,0.0
22/05/2023,02:11:03,-0.000,0.0,0.0,0.0
22/05/2023,02:12:03,-0.001,0.0,0.0,0.0
22/05/2023,02:13:03,-0.001,0.0,0.0,0.0
22/05/2023,02:14:04,-0.000,0.0,0.0,0.0
22/05/2023,02:15:03,-0.000,0.0,0.0,0.0
22/05/2023,02:16:03,0.001,0.0,0.0,0.0
22/05/2023,02:17:04,-0.001,0.0,0.0,0.0
22/05/2023,02:18:04,-0.000,0.0,0.0,0.0
22/05/2023,02:19:03,0.000,0.0,0.0,0.0
22/05/2023,02:20:03,-0.000,0.0,0.0,0.0
22/05/2023,02:21:03,-0.000,0.0,0.0,0.0
22/05/2023,02:22:03,-0.001,0.0,0.0,0.0
22/05/2023,02:23:04,-0.001,0.0,0.0,0.0
22/05/2023,02:24:03,0.001,0.0,0.0,0.0
22/05/2023,02:25:04,-0.001,0.0,0.0,0.0
22/05/2023,02:26:03,-0.000,0.0,0.0,0.0
22/05/2023,02:27:03,-0.000,0.0,0.0,0.0
22/05/2023,02:28:03,-0.000,0.0,0.0,0.0
22/05/2023,02:29:03,-0.001,0.0,0.0,0.0
22/05/2023,02:30:04,0.000,0.0,0.0,0.0
22/05/2023,02:31:03,-0.000,0.0,0.0,0.0
22/05/2023,02:32:03,0.000,0.0,0.0,0.0
22/05/2023,02:33:03,-0.000,0.0,0.0,0.0
22/05/2023,02:34:03,-0.000,0.0,0.0,0.0
22/05/2023,02:35:03,-0.000,0.0,0.0,0.0
22/05/2023,02:36:04,-0.000,0.0,0.0,0.0
22/05/2023,02:37:04,-0.000,0.0,0.0,0.0
22/05/2023,02:38:03,0.000,0.0,0.0,0.0
22/05/2023,02:39:03,0.001,0.0,0.0,0.0
22/05/2023,02:40:03,0.000,0.0,0.0,0.0
22/05/2023,02:41:04,-0.000,0.0,0.0,0.0
22/05/2023,02:42:04,0.000,0.0,0.0,0.0
22/05/2023,02:43:03,-0.000,0.0,0.0,0.0
22/05/2023,02:44:04,-0.001,0.0,0.0,0.0
22/05/2023,02:45:03,-0.000,0.0,0.0,0.0
22/05/2023,02:46:03,-0.001,0.0,0.0,0.0
22/05/2023,02:47:03,-0.000,0.0,0.0,0.0
22/05/2023,02:48:03,-0.000,0.0,0.0,0.0
22/05/2023,02:49:04,-0.000,0.0,0.0,0.0
22/05/2023,02:50:04,0.001,0.0,0.0,0.0
22/05/2023,02:51:03,-0.000,0.0,0.0,0.0
22/05/2023,02:52:04,-0.001,0.0,0.0,0.0
22/05/2023,02:53:03,-0.001,0.0,0.0,0.0
22/05/2023,02:54:03,-0.000,0.0,0.0,0.0
22/05/2023,02:55:04,-0.000,0.0,0.0,0.0
22/05/2023,02:56:04,-0.001,0.0,0.0,0.0
22/05/2023,02:57:03,-0.000,0.0,0.0,0.0
22/05/2023,02:58:03,-0.000,0.0,0.0,0.0
22/05/2023,02:59:03,0.001,0.0,0.0,0.0
22/05/2023,03:00:05,-0.001,0.0,0.0,0.0
22/05/2023,03:01:05,-0.001,0.0,0.0,0.0
22/05/2023,03:02:03,-0.001,0.0,0.0,0.0
22/05/2023,03:03:03,-0.001,0.0,0.0,0.0
22/05/2023,03:04:03,-0.000,0.0,0.0,0.0
22/05/2023,03:05:04,0.000,0.0,0.0,0.0
22/05/2023,03:06:03,-0.001,0.0,0.0,0.0
22/05/2023,03:07:03,-0.001,0.0,0.0,0.0
22/05/2023,03:08:03,-0.000,0.0,0.0,0.0
22/05/2023,03:09:03,-0.001,0.0,0.0,0.0
22/05/2023,03:10:03,-0.001,0.0,0.0,0.0
22/05/2023,03:11:03,-0.000,0.0,0.0,0.0
22/05/2023,03:12:03,-0.001,0.0,0.0,0.0
22/05/2023,03:13:03,-0.000,0.0,0.0,0.0
22/05/2023,03:14:03,-0.001,0.0,0.0,0.0
22/05/2023,03:15:04,-0.001,0.0,0.0,0.0
22/05/2023,03:16:03,0.000,0.0,0.0,0.0
22/05/2023,03:17:04,-0.000,0.0,0.0,0.0
22/05/2023,03:18:04,-0.000,0.0,0.0,0.0
22/05/2023,03:19:04,0.000,0.0,0.0,0.0
22/05/2023,03:20:04,-0.001,0.0,0.0,0.0
22/05/2023,03:21:04,-0.001,0.0,0.0,0.0
22/05/2023,03:22:03,0.000,0.0,0.0,0.0
22/05/2023,03:23:03,-0.000,0.0,0.0,0.0
22/05/2023,03:24:03,-0.000,0.0,0.0,0.0
22/05/2023,03:25:03,-0.000,0.0,0.0,0.0
22/05/2023,03:26:04,-0.001,0.0,0.0,0.0
22/05/2023,03:27:03,-0.000,0.0,0.0,0.0
22/05/2023,03:28:04,0.001,0.0,0.0,0.0
22/05/2023,03:29:03,-0.000,0.0,0.0,0.0
22/05/2023,03:30:04,-0.000,0.0,0.0,0.0
22/05/2023,03:31:03,-0.000,0.0,0.0,0.0
22/05/2023,03:32:04,-0.000,0.0,0.0,0.0
22/05/2023,03:33:04,-0.000,0.0,0.0,0.0
22/05/2023,03:34:04,-0.000,0.0,0.0,0.0
22/05/2023,03:35:04,-0.001,0.0,0.0,0.0
22/05/2023,03:36:04,-0.000,0.0,0.0,0.0
22/05/2023,03:37:03,-0.001,0.0,0.0,0.0
22/05/2023,03:38:03,-0.001,0.0,0.0,0.0
22/05/2023,03:39:03,-0.000,0.0,0.0,0.0
22/05/2023,03:40:04,0.000,0.0,0.0,0.0
22/05/2023,03:41:04,-0.000,0.0,0.0,0.0
22/05/2023,03:42:04,-0.000,0.0,0.0,0.0
22/05/2023,03:43:03,-0.000,0.0,0.0,0.0
22/05/2023,03:44:04,0.000,0.0,0.0,0.0
22/05/2023,03:45:04,0.000,0.0,0.0,0.0
22/05/2023,03:46:04,-0.000,0.0,0.0,0.0
22/05/2023,03:47:03,0.000,0.0,0.0,0.0
22/05/2023,03:48:03,0.000,0.0,0.0,0.0
22/05/2023,03:49:03,0.000,0.0,0.0,0.0
22/05/2023,03:50:04,0.000,0.0,0.0,0.0
22/05/2023,03:51:04,0.001,0.0,0.0,0.0
22/05/2023,03:52:04,0.001,0.0,0.0,0.0
22/05/2023,03:53:03,0.001,0.0,0.0,0.0
22/05/2023,03:54:03,0.000,0.0,0.0,0.0
22/05/2023,03:55:04,0.000,0.0,0.0,0.0
22/05/2023,03:56:04,0.000,0.0,0.0,0.0
22/05/2023,03:57:04,0.000,0.0,0.0,0.0
22/05/2023,03:58:04,0.000,0.0,0.0,0.0
22/05/2023,03:59:03,0.001,0.0,0.0,0.0
22/05/2023,04:00:04,0.002,0.0,0.0,0.0
22/05/2023,04:01:04,0.001,0.0,0.0,0.0
22/05/2023,04:02:03,0.001,0.0,0.0,0.0
22/05/2023,04:03:03,0.001,0.0,0.0,0.0
22/05/2023,04:04:03,0.001,0.0,0.0,0.0
22/05/2023,04:05:03,0.002,0.0,0.0,0.0
22/05/2023,04:06:04,-0.000,0.0,0.0,0.0
22/05/2023,04:07:04,0.001,0.0,0.0,0.0
22/05/2023,04:08:03,0.001,0.0,0.0,0.0
22/05/2023,04:09:03,0.001,0.0,0.0,0.0
22/05/2023,04:10:03,0.001,0.0,0.0,0.0
22/05/2023,04:11:03,0.001,0.0,0.0,0.0
22/05/2023,04:12:03,0.001,0.0,0.0,0.0
22/05/2023,04:13:04,0.001,0.0,0.0,0.0
22/05/2023,04:14:04,0.001,0.0,0.0,0.0
22/05/2023,04:15:03,0.001,0.0,0.0,0.0
22/05/2023,04:16:03,0.001,0.0,0.0,0.0
22/05/2023,04:17:03,0.002,0.0,0.0,0.0
22/05/2023,04:18:04,0.002,0.0,0.0,0.0
22/05/2023,04:19:03,0.002,0.0,0.0,0.0
22/05/2023,04:20:03,0.002,0.0,0.0,0.0
22/05/2023,04:21:03,0.002,0.0,0.0,0.0
22/05/2023,04:22:04,0.002,0.0,0.0,0.0
22/05/2023,04:23:04,0.002,0.0,0.0,0.0
22/05/2023,04:24:04,0.002,0.0,0.0,0.0
22/05/2023,04:25:03,0.002,0.0,0.0,0.0
22/05/2023,04:26:03,0.003,0.0,0.0,0.0
22/05/2023,04:27:04,0.003,0.0,0.0,0.0
22/05/2023,04:28:03,0.002,0.0,0.0,0.0
22/05/2023,04:29:03,0.003,0.0,0.0,0.0
22/05/2023,04:30:03,0.003,0.0,0.0,0.0
22/05/2023,04:31:04,0.003,0.0,0.0,0.0
22/05/2023,04:32:04,0.004,0.0,0.0,0.0
22/05/2023,04:33:04,0.004,0.0,0.0,0.0
22/05/2023,04:34:03,0.004,0.0,0.0,0.0
22/05/2023,04:35:04,0.004,0.0,0.0,0.0
22/05/2023,04:36:03,0.003,0.0,0.0,0.0
22/05/2023,04:37:03,0.005,0.0,0.0,0.0
22/05/2023,04:38:03,0.005,0.0,0.0,0.0
22/05/2023,04:39:03,0.004,0.0,0.0,0.0
22/05/2023,04:40:03,0.004,0.0,0.0,0.0
22/05/2023,04:41:04,0.005,0.0,0.0,0.0
22/05/2023,04:42:04,0.005,0.0,0.0,0.0
22/05/2023,04:43:03,0.004,0.0,0.0,0.0
22/05/2023,04:44:04,0.006,0.0,0.0,0.0
22/05/2023,04:45:04,0.006,0.0,0.0,0.0
22/05/2023,04:46:03,0.006,0.0,0.0,0.0
22/05/2023,04:47:03,0.006,0.0,0.0,0.0
22/05/2023,04:48:03,0.006,0.0,0.0,0.0
22/05/2023,04:49:03,0.006,0.0,0.0,0.0
22/05/2023,04:50:03,0.006,0.0,0.0,0.0
22/05/2023,04:51:03,0.007,0.0,0.001,0.001
22/05/2023,04:52:03,0.007,0.0,0.001,0.0
22/05/2023,04:53:04,0.007,0.0,0.001,0.0
22/05/2023,04:54:03,0.008,0.0,0.001,0.0
22/05/2023,04:55:03,0.007,0.0,0.001,0.0
22/05/2023,04:56:03,0.008,0.0,0.001,0.0
22/05/2023,04:57:03,0.009,0.0,0.001,0.0
22/05/2023,04:58:04,0.009,0.0,0.001,0.0
22/05/2023,04:59:04,0.009,0.0,0.002,0.001
22/05/2023,05:00:03,0.010,0.0,0.002,0.0
22/05/2023,05:01:03,0.010,0.0,0.002,0.0
22/05/2023,05:02:04,0.011,0.0,0.002,0.0
22/05/2023,05:03:04,0.012,0.0,0.002,0.0
22/05/2023,05:04:03,0.012,0.0,0.002,0.0
22/05/2023,05:05:04,0.013,0.0,0.003,0.001
22/05/2023,05:06:04,0.014,0.0,0.003,0.0
22/05/2023,05:07:04,0.015,0.0,0.003,0.0
22/05/2023,05:08:03,0.016,0.0,0.003,0.0
22/05/2023,05:09:03,0.018,0.0,0.004,0.001
22/05/2023,05:10:03,0.019,0.0,0.004,0.0
22/05/2023,05:11:03,0.021,0.0,0.004,0.0
22/05/2023,05:12:03,0.021,0.0,0.005,0.001
22/05/2023,05:13:04,0.022,0.0,0.005,0.0
22/05/2023,05:14:04,0.023,0.0,0.005,0.0
22/05/2023,05:15:03,0.024,0.0,0.006,0.001
22/05/2023,05:16:03,0.025,0.0,0.006,0.0
22/05/2023,05:17:03,0.025,0.0,0.007,0.001
22/05/2023,05:18:04,0.025,0.0,0.007,0.0
22/05/2023,05:19:04,0.026,0.0,0.007,0.0
22/05/2023,05:20:04,0.025,0.0,0.008,0.001
22/05/2023,05:21:04,0.026,0.0,0.008,0.0
22/05/2023,05:22:04,0.025,0.0,0.009,0.001
22/05/2023,05:23:04,0.026,0.0,0.009,0.0
22/05/2023,05:24:04,0.026,0.0,0.01,0.001
22/05/2023,05:25:03,0.027,0.0,0.01,0.0
22/05/2023,05:26:03,0.028,0.0,0.01,0.0
22/05/2023,05:27:03,0.028,0.0,0.011,0.001
22/05/2023,05:28:03,0.030,0.0,0.011,0.0
22/05/2023,05:29:03,0.032,0.0,0.012,0.001
22/05/2023,05:30:04,0.034,0.0,0.013,0.001
22/05/2023,05:31:04,0.033,0.0,0.013,0.0
22/05/2023,05:32:03,0.036,0.0,0.014,0.001
22/05/2023,05:33:03,0.038,0.0,0.014,0.0
22/05/2023,05:34:04,0.039,0.0,0.015,0.001
22/05/2023,05:35:04,0.039,0.0,0.016,0.001
22/05/2023,05:36:04,0.040,0.0,0.016,0.0
22/05/2023,05:37:04,0.041,0.0,0.017,0.001
22/05/2023,05:38:04,0.043,0.0,0.018,0.001
22/05/2023,05:39:04,0.044,0.0,0.018,0.0
22/05/2023,05:40:04,0.044,0.0,0.019,0.001
22/05/2023,05:41:03,0.045,0.0,0.02,0.001
22/05/2023,05:42:03,0.045,0.0,0.021,0.001
22/05/2023,05:43:03,0.045,0.0,0.021,0.0
22/05/2023,05:44:03,0.044,0.0,0.022,0.001
22/05/2023,05:45:03,0.043,0.0,0.023,0.001
22/05/2023,05:46:04,0.042,0.0,0.024,0.001
22/05/2023,05:47:04,0.042,0.0,0.024,0.0
22/05/2023,05:48:04,0.041,0.0,0.025,0.001
22/05/2023,05:49:03,0.041,0.0,0.026,0.001
22/05/2023,05:50:04,0.042,0.0,0.026,0.0
22/05/2023,05:51:04,0.043,0.0,0.027,0.001
22/05/2023,05:52:04,0.043,0.0,0.028,0.001
22/05/2023,05:53:04,0.041,0.0,0.028,0.0
22/05/2023,05:54:05,0.042,0.0,0.029,0.001
22/05/2023,05:55:04,0.042,0.0,0.03,0.001
22/05/2023,05:56:04,0.041,0.0,0.031,0.001
22/05/2023,05:57:04,0.042,0.0,0.031,0.0
22/05/2023,05:58:04,0.042,0.0,0.032,0.001
22/05/2023,05:59:03,0.044,0.0,0.033,0.001
22/05/2023,06:00:04,0.045,0.0,0.033,0.0
22/05/2023,06:01:04,0.046,0.0,0.034,0.001
22/05/2023,06:02:04,0.048,0.0,0.035,0.001
22/05/2023,06:03:03,0.048,0.0,0.036,0.001
22/05/2023,06:04:04,0.049,0.0,0.036,0.0
22/05/2023,06:05:03,0.050,0.0,0.037,0.001
22/05/2023,06:06:04,0.051,0.0,0.038,0.001
22/05/2023,06:07:04,0.052,0.0,0.039,0.001
22/05/2023,06:08:03,0.052,0.0,0.04,0.001
22/05/2023,06:09:03,0.053,0.0,0.041,0.001
22/05/2023,06:10:04,0.053,0.0,0.042,0.001
22/05/2023,06:11:04,0.053,0.0,0.043,0.001
22/05/2023,06:12:04,0.054,0.0,0.043,0.0
22/05/2023,06:13:03,0.056,0.0,0.044,0.001
22/05/2023,06:14:04,0.057,0.0,0.045,0.001
22/05/2023,06:15:04,0.059,0.0,0.046,0.001
22/05/2023,06:16:04,0.060,0.0,0.047,0.001
22/05/2023,06:17:03,0.060,0.0,0.048,0.001
22/05/2023,06:18:04,0.061,0.0,0.049,0.001
22/05/2023,06:19:04,0.061,0.0,0.05,0.001
22/05/2023,06:20:04,0.061,0.0,0.051,0.001
22/05/2023,06:21:04,0.062,0.0,0.052,0.001
22/05/2023,06:22:04,0.064,0.0,0.053,0.001
22/05/2023,06:23:04,0.065,0.0,0.055,0.002
22/05/2023,06:24:04,0.068,0.0,0.056,0.001
22/05/2023,06:25:04,0.069,0.0,0.057,0.001
22/05/2023,06:26:03,0.071,0.0,0.058,0.001
22/05/2023,06:27:03,0.073,0.0,0.059,0.001
22/05/2023,06:28:03,0.077,0.0,0.06,0.001
22/05/2023,06:29:04,0.079,0.0,0.062,0.002
22/05/2023,06:30:04,0.084,0.0,0.063,0.001
22/05/2023,06:31:03,0.087,0.0,0.064,0.001
22/05/2023,06:32:04,0.090,0.0,0.066,0.002
22/05/2023,06:33:04,0.092,0.0,0.067,0.001
22/05/2023,06:34:04,0.094,0.0,0.069,0.002
22/05/2023,06:35:03,0.097,0.0,0.071,0.002
22/05/2023,06:36:04,0.098,0.0,0.072,0.001
22/05/2023,06:37:04,0.100,0.0,0.074,0.002
22/05/2023,06:38:04,0.103,0.0,0.076,0.002
22/05/2023,06:39:04,0.107,0.0,0.077,0.001
22/05/2023,06:40:04,0.111,0.0,0.079,0.002
22/05/2023,06:41:03,0.114,0.0,0.081,0.002
22/05/2023,06:42:03,0.119,0.0,0.083,0.002
22/05/2023,06:43:04,0.121,0.0,0.085,0.002
22/05/2023,06:44:04,0.122,0.0,0.087,0.002
22/05/2023,06:45:03,0.125,0.0,0.089,0.002
22/05/2023,06:46:04,0.127,0.0,0.091,0.002
22/05/2023,06:47:04,0.130,0.0,0.093,0.002
22/05/2023,06:48:03,0.133,0.0,0.096,0.003
22/05/2023,06:49:04,0.136,0.0,0.098,0.002
22/05/2023,06:50:04,0.137,0.0,0.1,0.002
22/05/2023,06:51:04,0.137,0.0,0.102,0.002
22/05/2023,06:52:04,0.137,0.0,0.105,0.003
22/05/2023,06:53:04,0.136,0.0,0.107,0.002
22/05/2023,06:54:04,0.133,0.0,0.109,0.002
22/05/2023,06:55:04,0.133,0.0,0.111,0.002
22/05/2023,06:56:04,0.133,0.0,0.114,0.003
22/05/2023,06:57:04,0.135,0.0,0.116,0.002
22/05/2023,06:58:08,0.139,0.0,0.118,0.002
22/05/2023,06:59:05,0.142,0.0,0.12,0.002
22/05/2023,07:00:03,0.146,0.0,0.123,0.003
22/05/2023,07:01:03,0.149,0.0,0.125,0.002
22/05/2023,07:02:04,0.151,0.0,0.128,0.003
22/05/2023,07:03:04,0.152,0.0,0.13,0.002
22/05/2023,07:04:04,0.155,0.0,0.133,0.003
22/05/2023,07:05:03,0.158,0.0,0.136,0.003
22/05/2023,07:06:04,0.160,0.0,0.138,0.002
22/05/2023,07:07:04,0.160,0.0,0.141,0.003
22/05/2023,07:08:04,0.161,0.0,0.143,0.002
22/05/2023,07:09:04,0.160,0.0,0.146,0.003
22/05/2023,07:10:04,0.161,0.0,0.149,0.003
22/05/2023,07:11:04,0.161,0.0,0.152,0.003
22/05/2023,07:12:03,0.163,0.0,0.154,0.002
22/05/2023,07:13:04,0.163,0.0,0.157,0.003
22/05/2023,07:14:04,0.163,0.0,0.16,0.003
22/05/2023,07:15:03,0.166,0.0,0.162,0.002
22/05/2023,07:16:04,0.169,0.0,0.165,0.003
22/05/2023,07:17:04,0.176,0.0,0.168,0.003
22/05/2023,07:18:03,0.180,0.0,0.171,0.003
22/05/2023,07:19:04,0.185,0.0,0.174,0.003
22/05/2023,07:20:04,0.189,0.0,0.177,0.003
22/05/2023,07:21:04,0.193,0.0,0.18,0.003
22/05/2023,07:22:04,0.195,0.0,0.184,0.004
22/05/2023,07:23:03,0.196,0.0,0.187,0.003
22/05/2023,07:24:03,0.197,0.0,0.19,0.003
22/05/2023,07:25:04,0.196,0.0,0.193,0.003
22/05/2023,07:26:04,0.196,0.0,0.197,0.004
22/05/2023,07:27:04,0.197,0.0,0.2,0.003
22/05/2023,07:28:04,0.198,0.0,0.203,0.003
22/05/2023,07:29:04,0.199,0.0,0.206,0.003
22/05/2023,07:30:03,0.202,0.0,0.21,0.004
22/05/2023,07:31:04,0.208,0.0,0.213,0.003
22/05/2023,07:32:04,0.215,0.0,0.217,0.004
22/05/2023,07:33:04,0.227,1.0,0.22,0.003
22/05/2023,07:34:04,0.236,1.0,0.224,0.004
22/05/2023,07:35:03,0.248,1.0,0.228,0.004
22/05/2023,07:36:04,0.259,1.0,0.233,0.005
22/05/2023,07:37:04,0.266,1.0,0.237,0.004
22/05/2023,07:38:04,0.273,1.0,0.241,0.004
22/05/2023,07:39:04,0.276,1.0,0.246,0.005
22/05/2023,07:40:04,0.278,1.0,0.251,0.005
22/05/2023,07:41:04,0.279,1.0,0.255,0.004
22/05/2023,07:42:03,0.278,1.0,0.26,0.005
22/05/2023,07:43:03,0.277,1.0,0.265,0.005
22/05/2023,07:44:03,0.275,1.0,0.269,0.004
22/05/2023,07:45:04,0.275,1.0,0.274,0.005
22/05/2023,07:46:04,0.270,1.0,0.278,0.004
22/05/2023,07:47:04,0.263,1.0,0.283,0.005
22/05/2023,07:48:04,0.255,1.0,0.287,0.004
22/05/2023,07:49:04,0.248,1.0,0.291,0.004
22/05/2023,07:50:04,0.245,1.0,0.295,0.004
22/05/2023,07:51:04,0.250,1.0,0.299,0.004
22/05/2023,07:52:04,0.263,1.0,0.304,0.005
22/05/2023,07:53:04,0.284,1.0,0.308,0.004
22/05/2023,07:54:03,0.308,1.0,0.313,0.005
22/05/2023,07:55:03,0.325,1.0,0.319,0.006
22/05/2023,07:56:04,0.333,1.0,0.324,0.005
22/05/2023,07:57:04,0.333,1.0,0.33,0.006
22/05/2023,07:58:04,0.329,1.0,0.335,0.005
22/05/2023,07:59:04,0.322,1.0,0.341,0.006
22/05/2023,08:00:04,0.313,1.0,0.346,0.005
22/05/2023,08:01:04,0.304,1.0,0.351,0.005
22/05/2023,08:02:04,0.303,1.0,0.356,0.005
22/05/2023,08:03:04,0.302,1.0,0.361,0.005
22/05/2023,08:04:04,0.300,1.0,0.366,0.005
22/05/2023,08:05:04,0.297,1.0,0.371,0.005
22/05/2023,08:06:03,0.298,1.0,0.376,0.005
22/05/2023,08:07:04,0.299,1.0,0.381,0.005
22/05/2023,08:08:04,0.295,1.0,0.386,0.005
22/05/2023,08:09:04,0.291,1.0,0.391,0.005
22/05/2023,08:10:03,0.292,1.0,0.396,0.005
22/05/2023,08:11:04,0.291,1.0,0.4,0.004
22/05/2023,08:12:04,0.293,1.0,0.405,0.005
22/05/2023,08:13:04,0.296,1.0,0.41,0.005
22/05/2023,08:14:04,0.300,1.0,0.415,0.005
22/05/2023,08:15:03,0.306,1.0,0.42,0.005
22/05/2023,08:16:04,0.315,1.0,0.425,0.005
22/05/2023,08:17:04,0.318,1.0,0.431,0.006
22/05/2023,08:18:03,0.318,1.0,0.436,0.005
22/05/2023,08:19:04,0.319,1.0,0.441,0.005
22/05/2023,08:20:03,0.324,1.0,0.447,0.006
22/05/2023,08:21:04,0.330,1.0,0.452,0.005
22/05/2023,08:22:04,0.342,1.0,0.458,0.006
22/05/2023,08:23:04,0.351,1.0,0.464,0.006
22/05/2023,08:24:04,0.357,1.0,0.469,0.005
22/05/2023,08:25:03,0.361,1.0,0.475,0.006
22/05/2023,08:26:04,0.366,1.0,0.482,0.007
22/05/2023,08:27:04,0.373,1.0,0.488,0.006
22/05/2023,08:28:04,0.378,1.0,0.494,0.006
22/05/2023,08:29:04,0.386,1.0,0.5,0.006
22/05/2023,08:30:04,0.392,1.0,0.507,0.007
22/05/2023,08:31:04,0.403,1.0,0.513,0.006
22/05/2023,08:32:03,0.413,1.0,0.52,0.007
22/05/2023,08:33:04,0.421,1.0,0.527,0.007
22/05/2023,08:34:04,0.423,1.0,0.534,0.007
22/05/2023,08:35:04,0.421,1.0,0.541,0.007
22/05/2023,08:36:04,0.409,1.0,0.548,0.007
22/05/2023,08:37:04,0.397,1.0,0.555,0.007
22/05/2023,08:38:04,0.387,1.0,0.561,0.006
22/05/2023,08:39:04,0.385,1.0,0.568,0.007
22/05/2023,08:40:04,0.385,1.0,0.574,0.006
22/05/2023,08:41:04,0.384,1.0,0.581,0.007
22/05/2023,08:42:04,0.384,1.0,0.587,0.006
22/05/2023,08:43:04,0.389,1.0,0.594,0.007
22/05/2023,08:44:04,0.392,1.0,0.6,0.006
22/05/2023,08:45:04,0.401,1.0,0.607,0.007
22/05/2023,08:46:04,0.407,1.0,0.613,0.006
22/05/2023,08:47:04,0.407,1.0,0.62,0.007
22/05/2023,08:48:04,0.402,1.0,0.627,0.007
22/05/2023,08:49:03,0.394,1.0,0.634,0.007
22/05/2023,08:50:04,0.391,1.0,0.64,0.006
22/05/2023,08:51:04,0.392,1.0,0.647,0.007
22/05/2023,08:52:04,0.394,1.0,0.653,0.006
22/05/2023,08:53:04,0.402,1.0,0.66,0.007
22/05/2023,08:54:04,0.411,1.0,0.667,0.007
22/05/2023,08:55:04,0.417,1.0,0.674,0.007
22/05/2023,08:56:04,0.415,1.0,0.68,0.006
22/05/2023,08:57:03,0.413,1.0,0.687,0.007
22/05/2023,08:58:04,0.408,1.0,0.694,0.007
22/05/2023,08:59:04,0.403,1.0,0.701,0.007
22/05/2023,09:00:04,0.399,1.0,0.708,0.007
22/05/2023,09:01:04,0.399,1.0,0.714,0.006
22/05/2023,09:02:03,0.394,1.0,0.721,0.007
22/05/2023,09:03:04,0.393,1.0,0.727,0.006
22/05/2023,09:04:04,0.392,1.0,0.734,0.007
22/05/2023,09:05:04,0.395,1.0,0.741,0.007
22/05/2023,09:06:03,0.399,1.0,0.747,0.006
22/05/2023,09:07:04,0.405,1.0,0.754,0.007
22/05/2023,09:08:04,0.410,1.0,0.761,0.007
22/05/2023,09:09:04,0.410,1.0,0.768,0.007
22/05/2023,09:10:04,0.403,1.0,0.774,0.006
22/05/2023,09:11:04,0.387,1.0,0.781,0.007
22/05/2023,09:12:04,0.364,1.0,0.787,0.006
22/05/2023,09:13:04,0.342,1.0,0.793,0.006
22/05/2023,09:14:04,0.319,1.0,0.799,0.006
22/05/2023,09:15:04,0.305,1.0,0.804,0.005
22/05/2023,09:16:04,0.296,1.0,0.809,0.005
22/05/2023,09:17:04,0.289,1.0,0.814,0.005
22/05/2023,09:18:04,0.284,1.0,0.818,0.004
22/05/2023,09:19:04,0.288,1.0,0.823,0.005
22/05/2023,09:20:05,0.290,1.0,0.828,0.005
22/05/2023,09:21:04,0.289,1.0,0.833,0.005
22/05/2023,09:22:04,0.293,1.0,0.838,0.005
22/05/2023,09:23:04,0.303,1.0,0.843,0.005
22/05/2023,09:24:03,0.309,1.0,0.848,0.005
22/05/2023,09:25:04,0.320,1.0,0.853,0.005
22/05/2023,09:26:04,0.333,1.0,0.858,0.005
22/05/2023,09:27:04,0.342,1.0,0.864,0.006
22/05/2023,09:28:04,0.347,1.0,0.87,0.006
22/05/2023,09:29:04,0.355,1.0,0.876,0.006
22/05/2023,09:30:04,0.361,1.0,0.882,0.006
22/05/2023,09:31:04,0.375,1.0,0.888,0.006
22/05/2023,09:32:04,0.398,1.0,0.894,0.006
22/05/2023,09:33:04,0.424,1.0,0.901,0.007
22/05/2023,09:34:04,0.445,1.0,0.908,0.007
22/05/2023,09:35:04,0.451,1.0,0.916,0.008
22/05/2023,09:36:04,0.444,1.0,0.923,0.007
22/05/2023,09:37:04,0.442,1.0,0.931,0.008
22/05/2023,09:38:04,0.458,1.0,0.938,0.007
22/05/2023,09:39:03,0.480,1.0,0.946,0.008
22/05/2023,09:40:04,0.500,1.0,0.954,0.008
22/05/2023,09:41:04,0.509,1.0,0.962,0.008
22/05/2023,09:42:04,0.515,1.0,0.971,0.009
22/05/2023,09:43:04,0.524,1.0,0.98,0.009
22/05/2023,09:44:04,0.534,1.0,0.988,0.008
22/05/2023,09:45:04,0.545,1.0,0.997,0.009
22/05/2023,09:46:04,0.543,1.0,1.007,0.01
22/05/2023,09:47:04,0.539,1.0,1.016,0.009
22/05/2023,09:48:04,0.534,1.0,1.025,0.009
22/05/2023,09:49:04,0.533,1.0,1.033,0.008
22/05/2023,09:50:04,0.525,1.0,1.042,0.009
22/05/2023,09:51:04,0.505,1.0,1.051,0.009
22/05/2023,09:52:05,0.482,1.0,1.059,0.008
22/05/2023,09:53:04,0.460,1.0,1.067,0.008
22/05/2023,09:54:04,0.446,1.0,1.074,0.007
22/05/2023,09:55:04,0.437,1.0,1.082,0.008
22/05/2023,09:56:04,0.437,1.0,1.089,0.007